Weather History for Shenandoah, IA

Change the Weather History Date:

Friday, November 25, 2011

  Actual Average Record
Temperature  
Mean Temperature 50 °F -  
Max Temperature 55 °F 46 °F 71 °F (1960)
Min Temperature 44 °F 25 °F 7 °F (1980)
Degree Days  
Heating Degree Days 16    
Moisture  
Dew Point 44 °F    
Average Humidity 77    
Maximum Humidity 82    
Minimum Humidity 72    
Precipitation  
Precipitation 0.00 in - - ()
Sea Level Pressure  
Sea Level Pressure 29.78 in    
Wind  
Wind Speed 12 mph (South)    
Max Wind Speed 20 mph    
Max Gust Speed 25 mph    
Visibility 7 miles    
Events Rain    
Averages and records for this station are not official NWS values.
T = Trace of Precipitation, MM = Missing Value Source: NWS Daily Summary

Daily Weather History Graph

Daily Weather History Graph

Search for Another Location

Airport:

Trip Planner

Search our weather history database for the weather conditions in past years. The results will help you decide how hot, cold, wet, or windy it might be!

Date:

Astronomy

Nov. 25, 2011 Rise Set
Actual Time 7:19 AM CST 4:57 PM CST
Civil Twilight 6:49 AM CST 5:27 PM CST
Nautical Twilight 6:16 AM CST 6:00 PM CST
Astronomical Twilight 5:43 AM CST 6:33 PM CST
Moon 7:49 AM CST (11/25) 5:25 PM CST (11/25)
Length of Visible Light 10h 37m
Length of Day
9h 37m
New Moon, 0% of the Moon is Illuminated
Nov 25
New Moon
Dec 2
First Quarter
Dec 10
Full
Dec 17
Last Quarter
Dec 24
New

Hourly Weather History & Observations

Time (CST) Temp. Windchill Dew Point Humidity Pressure Visibility Wind Dir Wind Speed Gust Speed Precip Events Conditions
12:15 AM 48.2 °F - 41.0 °F 76% 29.88 in 10.0 mi SSW 13.8 mph - N/A   Scattered Clouds
1:15 AM 48.2 °F - 41.0 °F 76% 29.86 in 10.0 mi South 9.2 mph - N/A   Scattered Clouds
1:35 AM 48.2 °F - 41.0 °F 76% 29.86 in 10.0 mi South 10.4 mph - N/A   Scattered Clouds
1:55 AM 46.4 °F 42.4 °F 39.2 °F 76% 29.86 in 10.0 mi South 8.1 mph - N/A   Scattered Clouds
2:15 AM 46.4 °F 42.9 °F 41.0 °F 81% 29.86 in 10.0 mi South 6.9 mph - N/A   Scattered Clouds
2:35 AM 46.4 °F 41.9 °F 39.2 °F 76% 29.86 in 10.0 mi South 9.2 mph - N/A   Scattered Clouds
2:55 AM 44.6 °F 40.2 °F 39.2 °F 81% 29.85 in 7.0 mi South 8.1 mph - N/A   Scattered Clouds
3:15 AM 44.6 °F 40.7 °F 39.2 °F 81% 29.85 in 7.0 mi South 6.9 mph - N/A   Scattered Clouds
3:35 AM 44.6 °F 40.2 °F 39.2 °F 81% 29.84 in 7.0 mi South 8.1 mph - N/A   Scattered Clouds
4:35 AM 44.6 °F 38.8 °F 39.2 °F 81% 29.83 in 7.0 mi South 11.5 mph - N/A   Clear
4:55 AM 44.6 °F 39.7 °F 39.2 °F 81% 29.83 in 7.0 mi South 9.2 mph - N/A   Clear
5:15 AM 44.6 °F 39.2 °F 39.2 °F 81% 29.83 in 7.0 mi South 10.4 mph - N/A   Clear
5:35 AM 44.6 °F 38.4 °F 39.2 °F 81% 29.83 in 7.0 mi South 12.7 mph - N/A   Scattered Clouds
5:55 AM 44.6 °F 38.8 °F 39.2 °F 81% 29.83 in 7.0 mi South 11.5 mph - N/A   Mostly Cloudy
6:15 AM 46.4 °F 40.7 °F 41.0 °F 81% 29.83 in 7.0 mi South 12.7 mph - N/A   Overcast
6:35 AM 46.4 °F 40.7 °F 41.0 °F 81% 29.83 in 7.0 mi South 12.7 mph - N/A   Overcast
6:55 AM 46.4 °F 40.7 °F 41.0 °F 81% 29.83 in 7.0 mi South 12.7 mph 16.1 mph N/A   Overcast
7:15 AM 48.2 °F - 42.8 °F 82% 29.83 in 7.0 mi South 15.0 mph 18.4 mph N/A   Overcast
7:55 AM 48.2 °F - 42.8 °F 82% 29.84 in 5.0 mi South 12.7 mph 16.1 mph N/A   Haze
8:15 AM 48.2 °F - 42.8 °F 82% 29.83 in 5.0 mi South 13.8 mph 19.6 mph N/A   Haze
8:35 AM 48.2 °F - 42.8 °F 82% 29.83 in 5.0 mi South 15.0 mph - N/A   Haze
8:55 AM 48.2 °F - 42.8 °F 82% 29.83 in 5.0 mi South 13.8 mph - N/A   Haze
9:15 AM 48.2 °F - 42.8 °F 82% 29.83 in 5.0 mi South 12.7 mph - N/A   Haze
9:35 AM 50.0 °F - 42.8 °F 76% 29.82 in 5.0 mi South 11.5 mph - N/A   Haze
9:55 AM 50.0 °F - 44.6 °F 82% 29.82 in 5.0 mi South 13.8 mph 18.4 mph N/A   Haze
10:15 AM 51.8 °F - 44.6 °F 76% 29.82 in 5.0 mi South 15.0 mph - N/A   Haze
10:35 AM 51.8 °F - 44.6 °F 76% 29.82 in 5.0 mi South 15.0 mph - N/A   Haze
10:55 AM 51.8 °F - 44.6 °F 76% 29.81 in 5.0 mi South 15.0 mph - N/A   Haze
11:15 AM 51.8 °F - 44.6 °F 76% 29.81 in 5.0 mi South 13.8 mph - N/A   Haze
11:35 AM 51.8 °F - 44.6 °F 76% 29.78 in 5.0 mi South 10.4 mph - N/A   Haze
11:55 AM 53.6 °F - 44.6 °F 72% 29.77 in 7.0 mi South 12.7 mph - N/A   Overcast
12:15 PM 53.6 °F - 44.6 °F 72% 29.77 in 7.0 mi South 18.4 mph 21.9 mph N/A   Overcast
12:35 PM 53.6 °F - 44.6 °F 72% 29.76 in 7.0 mi South 17.3 mph 21.9 mph N/A   Overcast
12:55 PM 53.6 °F - 44.6 °F 72% 29.73 in 7.0 mi South 13.8 mph - N/A   Overcast
1:15 PM 55.4 °F - 46.4 °F 72% 29.71 in 7.0 mi South 15.0 mph 19.6 mph N/A   Overcast
1:35 PM 55.4 °F - 46.4 °F 72% 29.71 in 7.0 mi South 19.6 mph - N/A   Overcast
1:55 PM 55.4 °F - 46.4 °F 72% 29.71 in 7.0 mi South 18.4 mph - N/A   Overcast
2:35 PM 55.4 °F - 46.4 °F 72% 29.71 in 7.0 mi South 18.4 mph - N/A   Overcast
2:55 PM 55.4 °F - 46.4 °F 72% 29.70 in 7.0 mi South 15.0 mph - N/A   Overcast
3:15 PM 55.4 °F - 46.4 °F 72% 29.70 in 7.0 mi South 17.3 mph 25.3 mph N/A   Mostly Cloudy
3:35 PM 55.4 °F - 46.4 °F 72% 29.70 in 7.0 mi South 18.4 mph - N/A   Clear
3:55 PM 55.4 °F - 46.4 °F 72% 29.70 in 7.0 mi South 15.0 mph 20.7 mph N/A   Clear
4:15 PM 55.4 °F - 46.4 °F 72% 29.70 in 7.0 mi South 15.0 mph - N/A   Scattered Clouds
4:35 PM 53.6 °F - 46.4 °F 77% 29.70 in 7.0 mi South 12.7 mph 18.4 mph N/A   Scattered Clouds
4:55 PM 53.6 °F - 46.4 °F 77% 29.69 in 7.0 mi SSE 12.7 mph - N/A   Scattered Clouds
5:15 PM 53.6 °F - 46.4 °F 77% 29.69 in 7.0 mi SSE 11.5 mph - N/A   Mostly Cloudy
5:35 PM 53.6 °F - 46.4 °F 77% 29.70 in 7.0 mi South 13.8 mph - N/A   Scattered Clouds
5:55 PM 55.4 °F - 46.4 °F 72% 29.69 in 7.0 mi SSE 16.1 mph 21.9 mph N/A   Mostly Cloudy
6:15 PM 55.4 °F - 46.4 °F 72% 29.69 in 7.0 mi South 17.3 mph 21.9 mph N/A   Mostly Cloudy
6:35 PM 55.4 °F - 46.4 °F 72% 29.68 in 7.0 mi South 16.1 mph 19.6 mph N/A   Mostly Cloudy
6:55 PM 55.4 °F - 46.4 °F 72% 29.69 in 10.0 mi South 13.8 mph - N/A   Scattered Clouds
7:35 PM 55.4 °F - 46.4 °F 72% 29.69 in 10.0 mi South 15.0 mph - N/A   Scattered Clouds
7:55 PM 55.4 °F - 48.2 °F 77% 29.69 in 10.0 mi South 12.7 mph - N/A   Scattered Clouds
8:15 PM 55.4 °F - 48.2 °F 77% 29.69 in 10.0 mi South 12.7 mph - N/A Rain Light Rain
8:35 PM 55.4 °F - 48.2 °F 77% 29.69 in 10.0 mi South 11.5 mph - N/A   Overcast
8:55 PM 55.4 °F - 48.2 °F 77% 29.68 in 10.0 mi South 15.0 mph - N/A   Overcast
9:15 PM 55.4 °F - 48.2 °F 77% 29.69 in 10.0 mi South 16.1 mph 23.0 mph N/A   Overcast
9:35 PM 57.2 °F - 48.2 °F 72% 29.69 in 10.0 mi SSW 18.4 mph - N/A   Mostly Cloudy
9:55 PM 55.4 °F - 48.2 °F 77% 29.70 in 7.0 mi SSW 12.7 mph 16.1 mph N/A   Drizzle
10:15 PM 55.4 °F - 48.2 °F 77% 29.70 in 7.0 mi SSW 11.5 mph - N/A Rain Light Rain
10:35 PM 53.6 °F - 48.2 °F 82% 29.72 in 7.0 mi SSW 10.4 mph - 0.01 in Rain Rain
10:55 PM 53.6 °F - 48.2 °F 82% 29.73 in 7.0 mi SSW 15.0 mph - 0.04 in Rain Rain
11:15 PM 53.6 °F - 48.2 °F 82% 29.75 in 5.0 mi SW 13.8 mph 20.7 mph 0.04 in Rain Rain
11:35 PM 53.6 °F - 48.2 °F 82% 29.74 in 7.0 mi SSW 16.1 mph - 0.07 in Rain Rain